Regional Weather Roundup
Issued by NWS State College, PA

Home | Current Version | Previous Version | Text Only | Print | Product List | Glossary On
Versions: 1 2 3 4 5 6 7 8 9 10 11 12 13 14 15 16 17 18 19 20 21 22 23 24 25 26 27 28 29 30 31 32 33 34 35 36 37 38 39 40 41 42 43 44 45 46 47 48 49 50
000
ASUS41 KCTP 120110
RWRCTP

REGIONAL WEATHER ROUNDUP
NATIONAL WEATHER SERVICE STATE COLLEGE PA
800 PM EST MON DEC 11 2017

Note: "fair" indicates few or no clouds below 12,000 feet with no
significant weather and/or obstructions to visibility.

* = STATION THAT DOES NOT REPORT PRECIPITATION /E.G. RAIN...SNOW...ETC/
    THUNDER OR FOG.

PAZ002>004-007>009-013>016-020>023-029>032-120200-
WESTERN PENNSYLVANIA

CITY           SKY/WX    TMP DP  RH WIND       PRES   REMARKS
ERIE           CLOUDY    29  24  82 S8        29.78F HAZE
MEADVILLE      CLOUDY    28  25  88 VRB3      29.75F
FRANKLIN*      CLOUDY    29  22  75 SE6       29.76F
NEW CASTLE     FAIR      30  23  75 CALM      29.77F
BEAVER COUNTY  NOT AVBL
BUTLER*        CLOUDY    32  21  64 E5        29.78F
PITTSBURGH INT CLOUDY    36  22  56 CALM      29.77F
PITTSBURGH     CLOUDY    35  20  54 SE3       29.77F
INDIANA*       MOCLDY    34  23  64 SE5       29.82F
LATROBE        PTCLDY    32  25  74 CALM      29.80F
WASHINGTON CO* PTCLDY    31  22  69 CALM      29.81F
$$

PAZ004>006-010>012-017>019-024>028-033>037-041-042-045-046-049>053-120200-
CENTRAL PENNSYLVANIA

CITY           SKY/WX    TMP DP  RH WIND       PRES   REMARKS
BRADFORD       LGT SNOW  26  22  84 SE5       29.75F FOG
DUBOIS         CLOUDY    31  19  61 SE6       29.76F
CLEARFIELD     CLOUDY    32  21  64 NE3       29.81F
JOHNSTOWN      MOCLDY    34  20  56 SE6       29.76F
ALTOONA        CLOUDY    37  23  56 E3        29.81F
STATE COLLEGE  CLOUDY    32  21  64 CALM      29.85F
WILLIAMSPORT   CLOUDY    36  22  56 E10       29.90F
SELINSGROVE    CLOUDY    36  24  62 SE7       29.91F
FT INDIANTOWN  CLOUDY    34  26  73 E5        29.94S
CAPITAL CITY   PTCLDY    37  23  56 SE8       29.93F
HARRISBURG     CLOUDY    34  26  72 SE8       29.93F
YORK           CLEAR     33  25  72 SE5       29.92F
$$

PAZ038>040-043-044-047-048-054-055-060>062-067>071-120200-
EASTERN PENNSYLVANIA

CITY           SKY/WX    TMP DP  RH WIND       PRES   REMARKS
SCRANTON       CLOUDY    33  20  58 VRB5      29.91F
MOUNT POCONO   CLOUDY    27  19  72 SE7       29.89F
ALLENTOWN      CLOUDY    37  22  54 E5        29.97F
QUAKERTOWN*    CLOUDY    32  23  69 CALM      29.98S
READING        CLEAR     36  24  62 SE6       29.96S
LANCASTER      CLEAR     31  27  85 E5        29.95F
COATESVILLE    PTCLDY    34  23  64 CALM      29.97S
POTTSTOWN      CLEAR     30  21  69 CALM      29.99R
BLUE BELL      CLOUDY    30  28  93 CALM      30.00R
DOYLESTOWN     CLOUDY    31  24  75 CALM      29.98S
WILLOW GROVE   NOT AVBL
NORTH PHILA    CLOUDY    36  26  67 CALM      30.01F
PHILADELPHIA   CLOUDY    35  24  64 SE6       30.00S
$$



USA.gov is the U.S. government's official web portal to all federal, state and local government web resources and services.